CW2285 Weather Reports


Display with metric or nautical units.
time (UTC)temp
F
wind
direction
speed
MPH
gust
MPH
rain 1hr
in
rain 24hr
in
rain mn
in
humidity
%
barometer
mb
20260510150003 86 278 7.0 15.0 0.00 0.00 0.00 25 1006.5
20260510145503 85 274 10.0 17.0 0.00 0.00 0.00 25 1006.4
20260510145003 85 287 8.0 14.0 0.00 0.00 0.00 25 1006.4
20260510144503 85 279 9.0 16.0 0.00 0.00 0.00 25 1006.4
20260510144003 84 277 10.0 18.0 0.00 0.00 0.00 26 1006.3
20260510143503 84 277 8.0 16.0 0.00 0.00 0.00 27 1006.3
20260510143003 83 294 10.0 20.0 0.00 0.00 0.00 27 1006.3
20260510142504 83 271 9.0 17.0 0.00 0.00 0.00 27 1006.3
20260510142004 83 276 8.0 15.0 0.00 0.00 0.00 26 1006.2
20260510141004 82 283 6.0 15.0 0.00 0.00 0.00 27 1006.0
20260510140502 82 274 9.0 15.0 0.00 0.00 0.00 27 1005.9
20260510140003 82 276 9.0 20.0 0.00 0.00 0.00 27 1005.9
20260510135503 82 286 9.0 18.0 0.00 0.00 0.00 27 1006.1
20260510135004 81 294 11.0 17.0 0.00 0.00 0.00 27 1006.0
20260510134503 81 278 9.0 16.0 0.00 0.00 0.00 27 1005.8
20260510133503 81 289 7.0 15.0 0.00 0.00 0.00 28 1005.8
20260510133004 81 304 10.0 21.0 0.00 0.00 0.00 28 1005.7
20260510132503 80 283 10.0 20.0 0.00 0.00 0.00 28 1005.5
20260510132004 80 280 9.0 22.0 0.00 0.00 0.00 29 1005.5
20260510131503 81 275 10.0 22.0 0.00 0.00 0.00 29 1005.4
20260510131003 81 270 10.0 20.0 0.00 0.00 0.00 28 1005.3
20260510130503 81 280 9.0 20.0 0.00 0.00 0.00 28 1005.3
20260510130003 81 284 9.0 20.0 0.00 0.00 0.00 27 1005.3
20260510125503 81 274 9.0 16.0 0.00 0.00 0.00 27 1005.3
20260510124503 81 293 11.0 20.0 0.00 0.00 0.00 27 1005.2
20260510124004 81 276 12.0 21.0 0.00 0.00 0.00 27 1005.2
20260510123003 81 279 10.0 18.0 0.00 0.00 0.00 28 1005.1
20260510122504 81 286 12.0 23.0 0.00 0.00 0.00 29 1004.9
20260510122004 81 290 11.0 21.0 0.00 0.00 0.00 28 1004.9
20260510121503 81 283 12.0 20.0 0.00 0.00 0.00 27 1004.9
20260510121003 81 287 12.0 20.0 0.00 0.00 0.00 27 1004.9
20260510120503 81 291 10.0 17.0 0.00 0.00 0.00 27 1005.0
20260510120003 81 294 12.0 22.0 0.00 0.00 0.00 27 1005.0
20260510115503 81 281 12.0 17.0 0.00 0.00 0.00 27 1004.9
20260510115003 81 292 12.0 23.0 0.00 0.00 0.00 28 1005.1
20260510114503 81 285 13.0 20.0 0.00 0.00 0.00 28 1005.0
20260510114003 81 270 10.0 17.0 0.00 0.00 0.00 29 1005.1
20260510113503 81 288 13.0 21.0 0.00 0.00 0.00 29 1005.1
20260510113003 81 276 12.0 20.0 0.00 0.00 0.00 28 1005.0
20260510112503 81 292 11.0 22.0 0.00 0.00 0.00 28 1004.9
20260510112003 81 291 12.0 20.0 0.00 0.00 0.00 29 1005.0
20260510111503 80 291 10.0 20.0 0.00 0.00 0.00 29 1005.1
20260510111003 80 269 12.0 22.0 0.00 0.00 0.00 30 1005.1
20260510110503 80 285 12.0 22.0 0.00 0.00 0.00 30 1005.2
20260510105503 80 282 10.0 20.0 0.00 0.00 0.00 31 1005.2
20260510105003 80 295 12.0 20.0 0.00 0.00 0.00 30 1005.0
20260510104503 81 276 12.0 22.0 0.00 0.00 0.00 30 1005.0
20260510103503 80 291 10.0 20.0 0.00 0.00 0.00 30 1005.0
20260510102503 81 280 12.0 22.0 0.00 0.00 0.00 31 1004.8
20260510102003 81 273 13.0 24.0 0.00 0.00 0.00 29 1004.8
20260510101503 82 270 14.0 26.0 0.00 0.00 0.00 29 1004.7
20260510101004 82 279 12.0 23.0 0.00 0.00 0.00 29 1004.7
20260510100503 82 284 10.0 21.0 0.00 0.00 0.00 29 1004.8
20260510100003 82 278 11.0 20.0 0.00 0.00 0.00 28 1004.9
20260510095004 82 283 10.0 23.0 0.00 0.00 0.00 28 1004.8
20260510094503 82 289 12.0 24.0 0.00 0.00 0.00 28 1004.8
20260510094003 82 273 10.0 18.0 0.00 0.00 0.00 28 1004.8
20260510093504 82 274 10.0 17.0 0.00 0.00 0.00 28 1004.8
20260510093004 83 278 12.0 20.0 0.00 0.00 0.00 28 1004.9
20260510092503 83 283 12.0 21.0 0.00 0.00 0.00 28 1004.9
20260510091503 83 290 13.0 20.0 0.00 0.00 0.00 29 1004.7
20260510090503 82 290 10.0 17.0 0.00 0.00 0.00 29 1004.7
20260510090003 82 285 11.0 18.0 0.00 0.00 0.00 30 1004.7
20260510085004 82 288 10.0 21.0 0.00 0.00 0.00 30 1004.7
20260510083504 82 288 12.0 21.0 0.00 0.00 0.00 31 1004.7
20260510083003 82 303 12.0 22.0 0.00 0.00 0.00 31 1004.9
20260510082503 82 286 13.0 22.0 0.00 0.00 0.00 32 1004.9
20260510082004 82 297 12.0 21.0 0.00 0.00 0.00 32 1004.9
20260510081003 82 299 14.0 24.0 0.00 0.00 0.00 33 1004.9
20260510080504 82 285 12.0 22.0 0.00 0.00 0.00 33 1005.0
20260510080004 82 295 9.0 18.0 0.00 0.00 0.00 32 1004.9
20260510075003 82 300 13.0 25.0 0.00 0.00 0.00 32 1004.9
20260510074003 82 299 11.0 21.0 0.00 0.00 0.00 33 1005.0
20260510073503 82 298 12.0 23.0 0.00 0.00 0.00 32 1005.0
20260510073004 82 299 12.0 24.0 0.00 0.00 0.00 33 1004.9
20260510072503 82 296 10.0 21.0 0.00 0.00 0.00 33 1004.9
20260510072003 82 309 12.0 23.0 0.00 0.00 0.00 33 1004.9
20260510071503 82 314 12.0 22.0 0.00 0.00 0.00 33 1004.8
20260510071003 82 287 13.0 24.0 0.00 0.00 0.00 33 1004.8
20260510070503 82 304 13.0 23.0 0.00 0.00 0.00 32 1004.8
20260510070003 82 303 10.0 23.0 0.00 0.00 0.00 32 1004.8
20260510065003 83 294 13.0 24.0 0.00 0.00 0.00 32 1004.7
20260510064503 83 300 13.0 22.0 0.00 0.00 0.00 32 1004.8
20260510064004 83 293 13.0 22.0 0.00 0.00 0.00 32 1004.7
20260510063503 83 283 12.0 24.0 0.00 0.00 0.00 32 1004.7
20260510062503 83 291 12.0 21.0 0.00 0.00 0.00 31 1004.7
20260510062003 83 295 14.0 24.0 0.00 0.00 0.00 32 1004.7
20260510061504 83 290 12.0 21.0 0.00 0.00 0.00 31 1004.6
20260510061004 83 309 10.0 20.0 0.00 0.00 0.00 31 1004.7
20260510060504 83 288 11.0 20.0 0.00 0.00 0.00 31 1004.7
20260510060004 83 301 11.0 21.0 0.00 0.00 0.00 31 1004.7
20260510055503 83 289 13.0 26.0 0.00 0.00 0.00 31 1004.7
20260510054503 83 298 11.0 23.0 0.00 0.00 0.00 32 1004.6
20260510054003 83 307 10.0 21.0 0.00 0.00 0.00 33 1004.6
20260510053503 83 303 11.0 20.0 0.00 0.00 0.00 33 1004.6
20260510053004 83 300 12.0 23.0 0.00 0.00 0.00 33 1004.7
20260510052503 83 293 13.0 20.0 0.00 0.00 0.00 33 1004.6
20260510052003 83 295 10.0 20.0 0.00 0.00 0.00 33 1004.6
20260510051503 84 304 11.0 25.0 0.00 0.00 0.00 33 1004.6
20260510050503 84 299 12.0 21.0 0.00 0.00 0.00 32 1004.4
20260510050003 84 316 11.0 26.0 0.00 0.00 0.00 32 1004.4
20260510045503 84 299 12.0 25.0 0.00 0.00 0.00 32 1004.4
20260510045004 84 286 13.0 23.0 0.00 0.00 0.00 32 1004.4
20260510044503 85 300 10.0 17.0 0.00 0.00 0.00 32 1004.4
20260510044003 85 307 8.0 16.0 0.00 0.00 0.00 32 1004.4
20260510043503 85 306 7.0 21.0 0.00 0.00 0.00 31 1004.3
20260510043003 85 305 7.0 15.0 0.00 0.00 0.00 32 1004.3
20260510042503 85 313 6.0 12.0 0.00 0.00 0.00 31 1004.2
20260510041503 86 305 6.0 13.0 0.00 0.00 0.00 31 1004.2
20260510041003 86 308 7.0 17.0 0.00 0.00 0.00 31 1004.1
20260510040003 86 292 9.0 20.0 0.00 0.00 0.00 31 1004.0
20260510035003 87 304 8.0 14.0 0.00 0.00 0.00 31 1003.9
20260510034503 87 318 5.0 10.0 0.00 0.00 0.00 31 1003.8
20260510034003 88 302 9.0 18.0 0.00 0.00 0.00 30 1003.7
20260510033503 88 294 9.0 18.0 0.00 0.00 0.00 30 1003.7
20260510033004 88 312 10.0 20.0 0.00 0.00 0.00 30 1003.6
20260510032504 89 288 11.0 18.0 0.00 0.00 0.00 30 1003.3
20260510032004 89 288 10.0 23.0 0.00 0.00 0.00 30 1003.3
20260510031503 89 294 10.0 18.0 0.00 0.00 0.00 30 1003.3
20260510031003 89 308 10.0 21.0 0.00 0.00 0.00 30 1003.3
20260510030503 90 309 9.0 17.0 0.00 0.00 0.00 29 1003.2
20260510030004 90 292 10.0 22.0 0.00 0.00 0.00 29 1003.2
20260510025503 91 304 11.0 20.0 0.00 0.00 0.00 28 1003.2
20260510025003 91 280 11.0 21.0 0.00 0.00 0.00 27 1003.1
20260510024503 92 284 9.0 17.0 0.00 0.00 0.00 27 1003.1
20260510024003 92 284 13.0 20.0 0.00 0.00 0.00 26 1003.0
20260510023504 92 306 9.0 17.0 0.00 0.00 0.00 26 1002.9
20260510023003 93 303 12.0 21.0 0.00 0.00 0.00 25 1002.8
20260510022504 93 292 10.0 17.0 0.00 0.00 0.00 24 1002.8
20260510022004 94 288 11.0 20.0 0.00 0.00 0.00 24 1002.7
20260510021503 94 300 10.0 20.0 0.00 0.00 0.00 24 1002.7
20260510021003 95 292 9.0 18.0 0.00 0.00 0.00 23 1002.7
20260510020004 96 285 9.0 17.0 0.00 0.00 0.00 22 1002.7
20260510015504 96 291 10.0 21.0 0.00 0.00 0.00 21 1002.6
20260510015004 96 290 9.0 20.0 0.00 0.00 0.00 21 1002.6
20260510014503 97 293 12.0 20.0 0.00 0.00 0.00 21 1002.6
20260510013503 97 292 12.0 17.0 0.00 0.00 0.00 20 1002.6
20260510013004 98 301 10.0 20.0 0.00 0.00 0.00 19 1002.6
20260510012504 98 305 9.0 16.0 0.00 0.00 0.00 19 1002.6
20260510012003 98 299 10.0 20.0 0.00 0.00 0.00 19 1002.6
20260510011504 99 283 9.0 20.0 0.00 0.00 0.00 18 1002.6
20260510011003 99 284 10.0 18.0 0.00 0.00 0.00 18 1002.6
20260510010003 100 290 10.0 21.0 0.00 0.00 0.00 17 1002.6
20260510005504 100 294 10.0 17.0 0.00 0.00 0.00 18 1002.6
20260510005004 100 298 12.0 21.0 0.00 0.00 0.00 17 1002.5
20260510004503 100 286 9.0 20.0 0.00 0.00 0.00 17 1002.5
20260510004004 101 292 10.0 20.0 0.00 0.00 0.00 18 1002.5
20260510003504 101 294 9.0 20.0 0.00 0.00 0.00 17 1002.5
20260510003004 101 279 7.0 17.0 0.00 0.00 0.00 18 1002.5
20260510002503 101 296 9.0 20.0 0.00 0.00 0.00 18 1002.5
20260510002003 101 312 6.0 20.0 0.00 0.00 0.00 17 1002.6
20260510001504 101 300 10.0 16.0 0.00 0.00 0.00 17 1002.6
20260510001004 102 283 9.0 15.0 0.00 0.00 0.00 16 1002.6
20260510000504 102 280 9.0 20.0 0.00 0.00 0.00 15 1002.6
20260510000004 102 294 7.0 18.0 0.00 0.00 0.00 16 1002.5
20260509235003 102 279 6.0 17.0 0.00 0.00 0.00 15 1002.6
20260509234504 102 261 8.0 14.0 0.00 0.00 0.00 16 1002.6
20260509234003 102 280 9.0 14.0 0.00 0.00 0.00 15 1002.7
20260509233503 102 305 9.0 16.0 0.00 0.00 0.00 16 1002.7
20260509233004 102 262 6.0 15.0 0.00 0.00 0.00 14 1002.8
20260509232004 103 302 5.0 16.0 0.00 0.00 0.00 15 1003.1
20260509231503 104 262 9.0 15.0 0.00 0.00 0.00 13 1003.2
20260509231003 104 303 5.0 13.0 0.00 0.00 0.00 13 1003.2
20260509230004 103 292 7.0 14.0 0.00 0.00 0.00 13 1003.3
20260509225503 104 276 6.0 10.0 0.00 0.00 0.00 13 1003.4
20260509224503 104 244 7.0 13.0 0.00 0.00 0.00 12 1003.4
20260509223504 104 307 3.0 9.0 0.00 0.00 0.00 13 1003.6
20260509223003 104 288 6.0 12.0 0.00 0.00 0.00 13 1003.6
20260509222504 104 338 4.0 10.0 0.00 0.00 0.00 14 1003.7
20260509222004 104 291 4.0 12.0 0.00 0.00 0.00 14 1003.7
20260509221503 104 287 6.0 12.0 0.00 0.00 0.00 14 1003.7
20260509221004 104 297 3.0 6.0 0.00 0.00 0.00 14 1003.8
20260509220503 104 214 5.0 10.0 0.00 0.00 0.00 13 1003.9
20260509220003 104 241 6.0 10.0 0.00 0.00 0.00 13 1003.9
20260509215004 103 202 3.0 6.0 0.00 0.00 0.00 11 1004.1
20260509214503 103 161 5.0 7.0 0.00 0.00 0.00 12 1004.2
20260509214004 103 196 5.0 8.0 0.00 0.00 0.00 12 1004.2
20260509213504 103 152 1.0 3.0 0.00 0.00 0.00 11 1004.3
20260509213003 102 169 2.0 3.0 0.00 0.00 0.00 12 1004.3
20260509212503 102 136 1.0 3.0 0.00 0.00 0.00 11 1004.5
20260509212004 102 189 3.0 7.0 0.00 0.00 0.00 12 1004.7
20260509211503 102 181 4.0 6.0 0.00 0.00 0.00 12 1004.8
20260509211003 102 243 5.0 7.0 0.00 0.00 0.00 11 1004.8
20260509210504 102 263 3.0 6.0 0.00 0.00 0.00 12 1004.8
20260509210003 102 212 5.0 7.0 0.00 0.00 0.00 10 1004.9
20260509205504 101 70 1.0 10.0 0.00 0.00 0.00 11 1005.1
20260509205003 102 88 5.0 10.0 0.00 0.00 0.00 10 1005.2
20260509204503 102 142 3.0 8.0 0.00 0.00 0.00 11 1005.1
20260509204005 102 126 4.0 7.0 0.00 0.00 0.00 11 1005.2
20260509203503 102 118 3.0 5.0 0.00 0.00 0.00 12 1005.3
20260509203003 101 196 2.0 3.0 0.00 0.00 0.00 12 1005.3
20260509202504 100 43 2.0 3.0 0.00 0.00 0.00 13 1005.3
20260509202003 100 216 2.0 3.0 0.00 0.00 0.00 11 1005.3
20260509201504 100 203 1.0 3.0 0.00 0.00 0.00 12 1005.4
20260509201003 100 278 4.0 7.0 0.00 0.00 0.00 14 1005.6
20260509200503 100 215 1.0 3.0 0.00 0.00 0.00 14 1005.8
20260509200004 100 80 1.0 5.0 0.00 0.00 0.00 14 1005.8
20260509195504 98 79 2.0 3.0 0.00 0.00 0.00 13 1005.8
20260509195003 99 230 2.0 7.0 0.00 0.00 0.00 13 1005.8
20260509194504 99 233 5.0 7.0 0.00 0.00 0.00 12 1005.8
20260509194003 99 236 2.0 7.0 0.00 0.00 0.00 14 1005.8
20260509193503 99 150 4.0 8.0 0.00 0.00 0.00 13 1005.9
20260509193003 99 145 3.0 8.0 0.00 0.00 0.00 16 1005.9
20260509192503 98 190 2.0 7.0 0.00 0.00 0.00 13 1005.9
20260509192004 98 265 1.0 5.0 0.00 0.00 0.00 15 1006.3
20260509191503 97 5 2.0 3.0 0.00 0.00 0.00 14 1006.3
20260509191003 97 246 4.0 7.0 0.00 0.00 0.00 14 1006.3
20260509190503 98 201 5.0 8.0 0.00 0.00 0.00 14 1006.3
20260509190004 97 221 5.0 8.0 0.00 0.00 0.00 13 1006.3
20260509185004 97 188 2.0 5.0 0.00 0.00 0.00 16 1006.4
20260509184504 96 221 3.0 7.0 0.00 0.00 0.00 14 1006.5
20260509184003 96 227 3.0 6.0 0.00 0.00 0.00 14 1006.5
20260509183504 96 201 4.0 7.0 0.00 0.00 0.00 16 1006.5
20260509183003 95 161 2.0 5.0 0.00 0.00 0.00 16 1006.5
20260509182503 95 129 1.0 5.0 0.00 0.00 0.00 18 1006.6
20260509182003 95 107 2.0 6.0 0.00 0.00 0.00 16 1006.8
20260509181504 95 205 4.0 7.0 0.00 0.00 0.00 17 1006.8
20260509181003 95 203 1.0 5.0 0.00 0.00 0.00 17 1006.8
20260509180503 95 179 3.0 5.0 0.00 0.00 0.00 19 1006.8
20260509175504 93 147 2.0 7.0 0.00 0.00 0.00 19 1006.8
20260509175003 93 232 2.0 7.0 0.00 0.00 0.00 18 1006.8
20260509174503 93 213 2.0 6.0 0.00 0.00 0.00 19 1006.8
20260509174004 94 225 2.0 6.0 0.00 0.00 0.00 20 1006.8
20260509173503 93 235 5.0 7.0 0.00 0.00 0.00 20 1006.8
20260509173003 93 221 2.0 9.0 0.00 0.00 0.00 22 1006.8
20260509172503 92 202 3.0 8.0 0.00 0.00 0.00 20 1006.8
20260509172004 91 201 4.0 7.0 0.00 0.00 0.00 21 1006.8
20260509171504 92 214 3.0 7.0 0.00 0.00 0.00 20 1006.9
20260509171004 92 205 3.0 6.0 0.00 0.00 0.00 20 1006.9
20260509170503 92 225 4.0 7.0 0.00 0.00 0.00 20 1006.9
20260509170004 91 210 5.0 7.0 0.00 0.00 0.00 20 1006.9
20260509165503 91 208 5.0 10.0 0.00 0.00 0.00 22 1006.8
20260509165004 91 215 4.0 7.0 0.00 0.00 0.00 23 1006.8
20260509164504 90 228 5.0 8.0 0.00 0.00 0.00 24 1006.8
20260509164004 90 237 3.0 8.0 0.00 0.00 0.00 25 1006.9
20260509163003 89 219 5.0 9.0 0.00 0.00 0.00 24 1006.8
20260509162503 89 213 3.0 7.0 0.00 0.00 0.00 25 1006.8
20260509161504 88 218 4.0 6.0 0.00 0.00 0.00 27 1006.8
20260509161003 87 220 4.0 6.0 0.00 0.00 0.00 28 1006.8
20260509160504 87 223 3.0 8.0 0.00 0.00 0.00 28 1006.8
20260509160003 87 224 5.0 9.0 0.00 0.00 0.00 28 1006.9
20260509155504 87 234 5.0 9.0 0.00 0.00 0.00 27 1006.8
20260509155004 86 226 5.0 6.0 0.00 0.00 0.00 29 1006.8
20260509154504 86 205 3.0 6.0 0.00 0.00 0.00 31 1006.8
20260509154004 86 203 4.0 7.0 0.00 0.00 0.00 28 1006.7
20260509153503 86 262 6.0 13.0 0.00 0.00 0.00 26 1006.6
20260509153004 86 278 8.0 12.0 0.00 0.00 0.00 27 1006.8
20260509152504 85 296 9.0 17.0 0.00 0.00 0.00 27 1006.8
20260509152003 85 274 6.0 14.0 0.00 0.00 0.00 28 1006.6
20260509151003 84 284 9.0 15.0 0.00 0.00 0.00 30 1006.6
20260509150503 84 300 9.0 17.0 0.00 0.00 0.00 30 1006.6